Weather in Rájec-Jestřebí

Czech Republic     49°24′37″N   16°38′23″E
temp.,
°C
wind,
m/s
gust,
m/s
humid.,
%
clouds,
%
prec.,
mm/h
press.,
hPa
HPBL,
m
18 august, thu
thu1823:00+21e2660100 0.0 1012115
02:00+19ene226499 0.0 101218
05:00+19ne116898 0.0 101212
08:00+22e126073 0.0 1012142
11:00+27ese334230 0.0 1012954
14:00+30ese223395 0.0 10112156
17:00+30e2430100 0.0 10102620
20:00+24ene41152100 0.0 1009302
19 august, fri
fri1923:00+22ene31158100 0.0 1009273
02:00+19ene2275100 0.4 100925
05:00+18ene1179100 0.3 100911
08:00+21ese2667100 0.3 1010295
11:00+26s3546100 0.0 1011812
14:00+31s3634100 0.0 10091538
17:00+30wsw3339100 0.0 10081205
20:00+24nnw4861100 0.0 1008291
20 august, sat
sat2023:00+20se4988100 2.5 1012509
02:00+17wsw11966 2.5 101111
05:00+17ne119876 0.0 101111
08:00+19e0191100 0.4 1012226
11:00+21ne1178100 0.1 1012587
14:00+25nnw1162100 0.6 10121059
17:00+23nnw22696 4.0 1011463
20:00+17nw51097100 5.6 1013390
21 august, sun
sun2123:00+17nnw3797100 3.9 1013390
02:00+17nnw2798100 7.8 1013391
05:00+16nnw3997100 1.6 1012445
08:00+16nw3897100 2.7 1012389
11:00+16nw3897100 3.8 1012438
14:00+16nnw3794100 12.1 1012376
17:00+15nnw3697100 4.0 1011320
20:00+15nnw379899 5.3 1011283
22 august, mon
mon2223:00+14nw259896 0.3 1010237
02:00+14nw3898100 0.6 1010413
05:00+14nw31097100 1.2 1011445
08:00+14nnw41097100 1.9 1012586
11:00+15nnw51195100 0.4 1013674
14:00+15nnw41192100 0.9 1014663
17:00+15nnw61387100 0.1 1015681
20:00+14nnw41187100 0.1 1015479